EW7271 Weather Reports


time (UTC)temp
C
wind
direction
speed
KPH
gust
KPH
rain 1hr
cm
rain 24hr
cm
rain mn
cm
humidity
%
barometer
mb
20260506015201 19 199 0.0 0.0 0.00 0.00 0.00 66 1016.6
20260506014802 19 193 0.0 0.0 0.00 0.00 0.00 64 1016.6
20260506014400 20 219 0.0 0.0 0.00 0.00 0.00 64 1016.6
20260506014004 20 193 0.0 0.0 0.00 0.00 0.00 64 1016.5
20260506013601 20 289 0.0 0.0 0.00 0.00 0.00 63 1016.6
20260506012801 20 103 0.0 0.0 0.00 0.00 0.00 63 1016.4
20260506012400 20 158 0.0 0.0 0.00 0.00 0.00 63 1016.4
20260506012004 20 140 0.0 0.0 0.00 0.00 0.00 62 1016.2
20260506011602 20 175 0.0 0.0 0.00 0.00 0.00 63 1016.3
20260506011200 20 278 0.0 0.0 0.00 0.00 0.00 63 1016.1
20260506010400 20 205 0.0 0.0 0.00 0.00 0.00 61 1016.2
20260506010001 20 74 0.0 0.0 0.00 0.00 0.00 61 1016.0
20260506005601 20 159 0.0 0.0 0.00 0.00 0.00 61 1015.9
20260506005200 20 178 0.0 0.0 0.00 0.00 0.00 59 1016.0
20260506004806 20 142 0.0 0.0 0.00 0.00 0.00 60 1015.9
20260506004003 21 204 0.0 0.0 0.00 0.00 0.00 60 1015.7
20260506003601 21 225 0.0 0.0 0.00 0.00 0.00 59 1015.7
20260506003201 21 121 0.0 0.0 0.00 0.00 0.00 60 1015.5
20260506002402 21 192 0.0 0.0 0.00 0.00 0.00 58 1015.6
20260506002006 21 116 0.0 0.0 0.00 0.00 0.00 58 1015.5
20260506001600 21 325 0.0 0.0 0.00 0.00 0.00 58 1015.4
20260506001205 21 193 0.0 0.0 0.00 0.00 0.00 57 1015.3
20260506000800 21 161 0.0 0.0 0.00 0.00 0.00 57 1015.2
20260506000401 21 116 0.0 0.0 0.00 0.00 0.00 57 1015.2
20260506000007 22 130 0.0 0.0 0.00 0.00 0.00 55 1015.1
20260505235601 22 231 0.0 0.0 0.00 0.00 0.00 56 1015.2
20260505235202 22 228 0.0 0.0 0.00 0.00 0.00 56 1015.3
20260505234403 22 121 0.0 0.0 0.00 0.00 0.00 55 1015.2
20260505234001 22 80 0.0 0.0 0.00 0.00 0.00 55 1015.1
20260505233603 22 219 0.0 0.0 0.00 0.00 0.00 54 1015.1
20260505233206 23 138 0.0 0.0 0.00 0.00 0.00 54 1015.1
20260505232401 23 216 0.0 0.0 0.00 0.00 0.00 52 1015.0
20260505232002 23 169 0.0 0.0 0.00 0.00 0.00 53 1015.0
20260505231601 23 227 0.0 0.0 0.00 0.00 0.00 52 1014.9
20260505231201 23 229 0.0 0.0 0.00 0.00 0.00 53 1014.9
20260505230801 23 268 0.0 0.0 0.00 0.00 0.00 50 1015.0
20260505230405 23 340 0.0 0.0 0.00 0.00 0.00 52 1015.0
20260505230007 23 165 0.0 0.0 0.00 0.00 0.00 51 1015.0
20260505225600 24 286 0.0 0.0 0.00 0.00 0.00 52 1015.0
20260505224400 24 201 0.0 0.0 0.00 0.00 0.00 50 1015.1
20260505224002 24 93 0.0 0.0 0.00 0.00 0.00 50 1015.3
20260505223601 24 249 0.0 0.0 0.00 0.00 0.00 50 1015.2
20260505222802 25 143 0.0 0.0 0.00 0.00 0.00 50 1015.2
20260505222400 25 293 0.0 0.0 0.00 0.00 0.00 48 1015.2
20260505222004 25 24 0.0 0.0 0.00 0.00 0.00 48 1015.2
20260505221601 25 109 0.0 0.0 0.00 0.00 0.00 48 1015.2
20260505221200 25 274 0.0 0.0 0.00 0.00 0.00 50 1015.2
20260505220759 25 191 0.0 0.0 0.00 0.00 0.00 49 1015.2
20260505220401 25 151 0.0 0.0 0.00 0.00 0.00 48 1015.2
20260505220007 25 170 0.0 0.0 0.00 0.00 0.00 47 1015.3
20260505215601 25 155 0.0 0.0 0.00 0.00 0.00 50 1015.3
20260505215204 25 140 0.0 0.0 0.00 0.00 0.00 49 1015.3
20260505214800 25 72 0.0 0.0 0.00 0.00 0.00 48 1015.2
20260505214404 25 82 0.0 0.0 0.00 0.00 0.00 49 1015.1
20260505214001 25 184 0.0 0.0 0.00 0.00 0.00 48 1015.0
20260505213601 25 261 0.0 0.0 0.00 0.00 0.00 50 1014.9
20260505213200 26 163 0.0 0.0 0.00 0.00 0.00 48 1015.1
20260505212800 26 121 0.0 0.0 0.00 0.00 0.00 50 1015.1
20260505212400 26 190 0.0 0.0 0.00 0.00 0.00 50 1015.1
20260505212005 25 211 0.0 0.0 0.00 0.00 0.00 49 1015.1
20260505211202 26 113 0.0 0.0 0.00 0.00 0.00 48 1015.4
20260505210800 26 148 0.0 0.0 0.00 0.00 0.00 46 1015.6
20260505210400 26 149 0.0 0.0 0.00 0.00 0.00 48 1015.5
20260505210011 26 144 0.0 0.0 0.00 0.00 0.00 50 1015.4
20260505205604 25 127 0.0 0.0 0.00 0.00 0.00 48 1015.3
20260505204005 26 202 0.0 0.0 0.00 0.00 0.00 47 1015.4
20260505203159 26 117 0.0 0.0 0.00 0.00 0.00 44 1015.5
20260505202759 26 175 0.0 0.0 0.00 0.00 0.00 50 1015.4
20260505202401 26 74 0.0 0.0 0.00 0.00 0.00 47 1015.5
20260505202001 26 84 0.0 0.0 0.00 0.00 0.00 47 1015.6
20260505201559 25 123 0.0 0.0 0.00 0.00 0.00 48 1015.6
20260505201200 25 107 0.0 0.0 0.00 0.00 0.00 50 1015.6
20260505200800 26 138 0.0 0.0 0.00 0.00 0.00 45 1015.6
20260505200401 26 235 0.0 0.0 0.00 0.00 0.00 46 1015.7
20260505195559 26 122 0.0 0.0 0.00 0.00 0.00 49 1015.9
20260505195201 26 140 0.0 0.0 0.00 0.00 0.00 46 1015.9
20260505194759 26 106 0.0 0.0 0.00 0.00 0.00 45 1015.9
20260505194000 25 246 0.0 0.0 0.00 0.00 0.00 47 1016.1
20260505193600 25 183 0.0 0.0 0.00 0.00 0.00 45 1016.2
20260505193159 26 196 0.0 0.0 0.00 0.00 0.00 44 1016.3
20260505192800 26 253 0.0 0.0 0.00 0.00 0.00 44 1016.2
20260505192400 26 142 0.0 0.0 0.00 0.00 0.00 43 1016.4
20260505192002 26 200 0.0 0.0 0.00 0.00 0.00 47 1016.4
20260505191600 26 215 0.0 0.0 0.00 0.00 0.00 48 1016.5
20260505191202 26 211 0.0 0.0 0.00 0.00 0.00 47 1016.5
20260505190800 26 173 0.0 0.0 0.00 0.00 0.00 47 1016.5
20260505190359 26 293 0.0 0.0 0.00 0.00 0.00 49 1016.7
20260505190004 26 149 0.0 0.0 0.00 0.00 0.00 46 1016.7
20260505185601 26 67 0.0 0.0 0.00 0.00 0.00 49 1016.8
20260505185201 26 163 0.0 0.0 0.00 0.00 0.00 47 1016.9
20260505184759 26 98 0.0 0.0 0.00 0.00 0.00 45 1016.9
20260505184359 26 199 0.0 0.0 0.00 0.00 0.00 49 1017.0
20260505184000 26 244 0.0 0.0 0.00 0.00 0.00 48 1017.0
20260505183159 26 302 0.0 0.0 0.00 0.00 0.00 45 1017.1
20260505182800 26 109 0.0 0.0 0.00 0.00 0.00 49 1017.0
20260505182359 25 211 0.0 0.0 0.00 0.00 0.00 52 1017.1
20260505182000 25 164 0.0 0.0 0.00 0.00 0.00 46 1017.3
20260505181600 26 169 0.0 0.0 0.00 0.00 0.00 51 1017.3
20260505181201 26 272 0.0 0.0 0.00 0.00 0.00 46 1017.2
20260505180800 26 279 0.0 0.0 0.00 0.00 0.00 47 1017.3
20260505180400 26 145 0.0 0.0 0.00 0.00 0.00 44 1017.3
20260505175959 25 210 0.0 0.0 0.00 0.00 0.00 53 1017.6
20260505175559 25 210 0.0 0.0 0.00 0.00 0.00 53 1017.6
20260505175158 25 210 0.0 0.0 0.00 0.00 0.00 53 1017.6
20260505174759 25 210 0.0 0.0 0.00 0.00 0.00 53 1017.6
20260505174358 25 210 0.0 0.0 0.00 0.00 0.00 53 1017.6
20260505173959 25 210 0.0 0.0 0.00 0.00 0.00 53 1017.6
20260505173559 25 210 0.0 0.0 0.00 0.00 0.00 53 1017.6
20260505173159 25 210 0.0 0.0 0.00 0.00 0.00 53 1017.6
20260505172759 25 210 0.0 0.0 0.00 0.00 0.00 53 1017.6
20260505172359 25 210 0.0 0.0 0.00 0.00 0.00 53 1017.6
20260505171959 25 210 0.0 0.0 0.00 0.00 0.00 53 1017.6
20260505171559 25 210 0.0 0.0 0.00 0.00 0.00 53 1017.6
20260505171159 25 210 0.0 0.0 0.00 0.00 0.00 53 1017.6
20260505170758 25 210 0.0 0.0 0.00 0.00 0.00 53 1017.6
20260505170359 25 210 0.0 0.0 0.00 0.00 0.00 53 1017.6
20260505165200 25 215 0.0 0.0 0.00 0.00 0.00 53 1017.7
20260505164800 25 138 0.0 0.0 0.00 0.00 0.00 48 1017.8
20260505164001 25 153 0.0 0.0 0.00 0.00 0.00 53 1017.8
20260505163559 25 286 0.0 0.0 0.00 0.00 0.00 50 1017.8
20260505163159 25 215 0.0 0.0 0.00 0.00 0.00 52 1017.8
20260505162800 25 119 0.0 0.0 0.00 0.00 0.00 53 1017.9
20260505162002 25 262 0.0 0.0 0.00 0.00 0.00 55 1018.2
20260505161600 24 150 0.0 0.0 0.00 0.00 0.00 52 1018.1
20260505161201 24 248 0.0 0.0 0.00 0.00 0.00 51 1018.3
20260505160400 24 128 0.0 0.0 0.00 0.00 0.00 55 1018.1
20260505153158 23 78 0.0 0.0 0.00 0.00 0.00 54 1018.5
20260505152759 23 314 0.0 0.0 0.00 0.00 0.00 55 1018.5
20260505152358 23 161 0.0 0.0 0.00 0.00 0.00 55 1018.6
20260505152000 23 70 0.0 0.0 0.00 0.00 0.00 58 1018.6
20260505151559 23 284 0.0 0.0 0.00 0.00 0.00 58 1018.5
20260505151159 23 288 0.0 0.0 0.00 0.00 0.00 56 1018.6
20260505150759 22 331 0.0 0.0 0.00 0.00 0.00 57 1018.5
20260505140400 21 310 0.0 0.0 0.00 0.00 0.00 67 1018.5
20260505124759 17 170 0.0 0.0 0.00 0.00 0.00 71 1018.7
20260505124359 17 303 0.0 0.0 0.00 0.00 0.00 73 1018.6
20260505124001 17 198 0.0 0.0 0.00 0.00 0.00 74 1018.7
20260505123158 17 293 0.0 0.0 0.00 0.00 0.00 77 1018.6
20260505122358 16 154 0.0 0.0 0.00 0.00 0.00 77 1018.5
20260505121559 16 265 0.0 0.0 0.00 0.00 0.00 77 1018.5
20260505121159 15 286 0.0 0.0 0.00 0.00 0.00 79 1018.6
20260505120758 15 291 0.0 0.0 0.00 0.00 0.00 80 1018.5
20260505120359 15 217 0.0 0.0 0.00 0.00 0.00 80 1018.3
20260505120000 15 287 0.0 0.0 0.00 0.00 0.00 81 1018.4
20260505115558 14 286 0.0 0.0 0.00 0.00 0.00 82 1018.4
20260505114400 13 275 0.0 0.0 0.00 0.00 0.00 84 1018.3
20260505113558 13 275 0.0 0.0 0.00 0.00 0.00 85 1018.3
20260505113159 12 275 0.0 1054.1 14.63 1.24 0.00 86
20260505112759 12 275 0.0 0.0 0.00 0.00 0.00 87 1018.2
20260505112359 12 275 0.0 0.0 0.00 0.00 0.00 87 1018.1
20260505111959 12 275 0.0 0.0 0.00 0.00 0.00 88 1018.1
20260505111158 11 275 0.0 0.0 0.00 0.00 0.00 88 1018.0
20260505110758 11 275 0.0 0.0 0.00 0.00 0.00 88 1017.9
20260505110400 11 275 0.0 0.0 0.00 0.00 0.00 88 1017.9
20260505101959 11 360 0.0 0.0 0.00 0.00 0.00 87 1017.2
20260505101559 11 360 0.0 0.0 0.00 0.00 0.00 86 1017.2
20260505100401 11 360 0.0 0.0 0.00 0.00 0.00 86 1017.1
20260505095557 11 360 0.0 0.0 0.00 0.00 0.00 85 1017.1
20260505095159 11 360 0.0 0.0 0.00 0.00 0.00 85 1017.1
20260505094358 12 360 0.0 0.0 0.00 0.00 0.00 84 1017.0
20260505094000 12 360 0.0 0.0 0.00 0.00 0.00 84 1017.0
20260505093558 12 360 0.0 0.0 0.00 0.00 0.00 83 1017.0
20260505093158 12 360 0.0 0.0 0.00 0.00 0.00 83 1017.1
20260505092400 12 360 0.0 0.0 0.00 0.00 0.00 82 1017.0
20260505091958 12 360 0.0 0.0 0.00 0.00 0.00 82 1016.9
20260505091559 12 360 0.0 0.0 0.00 0.00 0.00 82 1016.9
20260505091158 12 360 0.0 0.0 0.00 0.00 0.00 81 1016.9
20260505090759 12 360 0.0 0.0 0.00 0.00 0.00 81 1016.9
20260505090359 12 360 0.0 0.0 0.00 0.00 0.00 80 1016.8
20260505085959 13 360 0.0 0.0 0.00 0.00 0.00 80 1016.9
20260505085557 13 360 0.0 0.0 0.00 0.00 0.00 79 1016.8
20260505085157 13 360 0.0 0.0 0.00 0.00 0.00 79 1016.8
20260505084758 13 360 0.0 0.0 0.00 0.00 0.00 78 1016.8
20260505084357 13 360 0.0 0.0 0.00 0.00 0.00 79 1016.7
20260505083957 13 360 0.0 0.0 0.00 0.00 0.00 78 1016.7
20260505083557 13 360 0.0 0.0 0.00 0.00 0.00 79 1016.8
20260505082758 13 360 0.0 0.0 0.00 0.00 0.00 79 1016.7
20260505081958 13 360 0.0 0.0 0.00 0.00 0.00 78 1016.7
20260505081558 13 360 0.0 0.0 0.00 0.00 0.00 79 1016.7
20260505081157 13 360 0.0 0.0 0.00 0.00 0.00 77 1016.7
20260505080757 13 360 0.0 0.0 0.00 0.00 0.00 78 1016.7
20260505075959 13 360 0.0 0.0 0.00 0.00 0.00 77 1016.7
20260505075159 13 360 0.0 0.0 0.00 0.00 0.00 77 1016.6
20260505074358 13 360 0.0 0.0 0.00 0.00 0.00 77 1016.6
20260505074000 13 360 0.0 0.0 0.00 0.00 0.00 76 1016.7
20260505072758 13 360 0.0 0.0 0.00 0.00 0.00 78 1016.7
20260505072359 13 360 0.0 0.0 0.00 0.00 0.00 78 1016.6
20260505072000 13 360 0.0 0.0 0.00 0.00 0.00 77 1016.6
20260505071201 13 360 0.0 0.0 0.00 0.00 0.00 77 1016.5
20260505070758 13 360 0.0 0.0 0.00 0.00 0.00 77 1016.6
20260505070359 13 360 0.0 0.0 0.00 0.00 0.00 77 1016.6
20260505065957 13 360 0.0 0.0 0.00 0.00 0.00 77 1016.6
20260505065158 13 360 0.0 0.0 0.00 0.00 0.00 77 1016.6
20260505064758 13 360 0.0 0.0 0.00 0.00 0.00 76 1016.6
20260505064358 13 360 0.0 0.0 0.00 0.00 0.00 76 1016.7
20260505063958 13 360 0.0 0.0 0.00 0.00 0.00 76 1016.6
20260505063557 13 360 0.0 0.0 0.00 0.00 0.00 76 1016.6
20260505063157 14 360 0.0 0.0 0.00 0.00 0.00 76 1016.5
20260505062757 14 360 0.0 0.0 0.00 0.00 0.00 76 1016.5
20260505062357 14 360 0.0 0.0 0.00 0.00 0.00 76 1016.6
20260505061959 13 360 0.0 0.0 0.00 0.00 0.00 76 1016.6
20260505061557 13 360 0.0 0.0 0.00 0.00 0.00 77 1016.7
20260505061157 14 360 0.0 0.0 0.00 0.00 0.00 76 1016.7
20260505060357 14 360 0.0 0.0 0.00 0.00 0.00 75 1016.8
20260505055557 14 360 0.0 0.0 0.00 0.00 0.00 75 1016.8
20260505055158 14 360 0.0 0.0 0.00 0.00 0.00 74 1016.9
20260505054757 14 360 0.0 0.0 0.00 0.00 0.00 75 1016.9
20260505054359 14 360 0.0 0.0 0.00 0.00 0.00 75 1016.9
20260505053958 15 360 0.0 0.0 0.00 0.00 0.00 75 1017.0
20260505053559 15 360 0.0 0.0 0.00 0.00 0.00 75 1017.0
20260505053158 15 360 0.0 0.0 0.00 0.00 0.00 74 1017.1
20260505052758 15 360 0.0 0.0 0.00 0.00 0.00 74 1017.1
20260505052358 15 360 0.0 0.0 0.00 0.00 0.00 73 1017.0
20260505051959 15 360 0.0 0.0 0.00 0.00 0.00 73 1017.1
20260505051557 15 360 0.0 0.0 0.00 0.00 0.00 73 1017.1
20260505051157 15 247 0.0 0.0 0.00 0.00 0.00 72 1017.1
20260505050357 15 13 0.0 0.0 0.00 0.00 0.00 71 1017.0
20260505041600 16 0.0 0.0 0.00 0.00 0.00 70 1016.9
20260505040800 16 263 0.0 0.0 0.00 0.00 0.00 71 1016.9
20260505040400 16 263 0.0 0.0 0.00 0.00 0.00 70 1016.8
20260505040001 16 263 0.0 0.0 0.00 0.00 0.00 69 1016.8
20260505035601 16 263 0.0 0.0 0.00 0.00 0.00 69 1016.9
20260505035201 16 160 0.0 0.0 0.00 0.00 0.00 68 1016.9
20260505034801 16 263 0.0 0.0 0.00 0.00 0.00 69 1016.8
20260505034359 16 239 0.0 0.0 0.00 0.00 0.00 68 1016.8
20260505033600 16 302 0.0 0.0 0.00 0.00 0.00 68 1016.8
20260505032800 16 302 0.0 0.0 0.00 0.00 0.00 69 1016.9
20260505032401 16 90 0.0 0.0 0.00 0.00 0.00 68 1016.8
20260505031600 16 290 0.0 0.0 0.00 0.00 0.00 66 1016.8
20260505031200 16 161 0.0 0.0 0.00 0.00 0.00 66 1016.7
20260505030800 17 129 0.0 0.0 0.00 0.00 0.00 66 1016.7
20260505030402 17 289 0.0 0.0 0.00 0.00 0.00 66 1016.8
20260505030001 17 296 0.0 0.0 0.00 0.00 0.00 65 1016.7
20260505025601 17 137 0.0 0.0 0.00 0.00 0.00 65 1016.6
20260505025201 17 201 0.0 0.0 0.00 0.00 0.00 66 1016.7
20260505024800 17 269 0.0 0.0 0.00 0.00 0.00 66 1016.7
20260505024401 17 232 0.0 0.0 0.00 0.00 0.00 65 1016.8
20260505023600 17 273 0.0 0.0 0.00 0.00 0.00 65 1016.8
20260505023201 17 98 0.0 0.0 0.00 0.00 0.00 65 1016.7
20260505022802 17 167 0.0 0.0 0.00 0.00 0.00 65 1016.7
20260505022400 17 217 0.0 0.0 0.00 0.00 0.00 63 1016.7
20260505022001 17 292 0.0 0.0 0.00 0.00 0.00 65 1016.7
20260505021602 17 132 0.0 0.0 0.00 0.00 0.00 63 1016.7
20260505021200 17 107 0.0 0.0 0.00 0.00 0.00 63 1016.5
20260505020801 18 155 0.0 0.0 0.00 0.00 0.00 63 1016.5
20260505020400 18 95 0.0 0.0 0.00 0.00 0.00 62 1016.5
20260505015601 18 239 0.0 0.0 0.00 0.00 0.00 62 1016.5